Ord, NE

12:11 AM CDT on April 22, 2018 (GMT -0500)
Sharp

Weather History for KODX - February, 2015

Change the Weather History Date:

Saturday, February 14, 2015

  Actual Average Record
Temperature  
Mean Temperature 25 °F 27 °F  
Max Temperature 34 °F 40 °F 73 °F (1999)
Min Temperature 16 °F 15 °F -9 °F (2007)
Degree Days  
Heating Degree Days 40 38  
Month to date heating degree days 513 541  
Since 1 July heating degree days 4486 4517  
Cooling Degree Days 0 0  
Month to date cooling degree days 0 0  
Year to date cooling degree days 0 0  
Moisture  
Dew Point 9 °F    
Average Humidity 58    
Maximum Humidity 85    
Minimum Humidity 31    
Precipitation  
Precipitation 0.00 in 0.02 in 0.71 in (1969)
Month to date precipitation 0.49 0.25  
Year to date precipitation 0.66 0.62  
Sea Level Pressure  
Sea Level Pressure 30.34 in    
Wind  
Wind Speed 10 mph (NE)    
Max Wind Speed 22 mph    
Max Gust Speed 29 mph    
Visibility 10 miles    
Events      
T = Trace of Precipitation, MM = Missing Value Source: NWS Daily Summary

Daily Weather History Graph

Daily Weather History Graph

Search for Another Location

Airport or City:

Astronomy

Feb. 14, 2015 Rise Set
Actual Time 7:32 AM CST 6:07 PM CST
Civil Twilight 7:04 AM CST 6:36 PM CST
Nautical Twilight 6:31 AM CST 7:08 PM CST
Astronomical Twilight 5:59 AM CST 7:41 PM CST
Moon 3:38 AM CST (2/14) 1:41 PM CST (2/14)
Length of Visible Light 11h 32m
Length of Day
10h 35m
Waning Crescent, 24% of the Moon is Illuminated
Feb 14
Waning Crescent
Feb 18
New
Feb 25
First Quarter
Mar 5
Full
Mar 13
Last Quarter

Hourly Weather History & Observations

Time (CST) Temp. Windchill Dew Point Humidity Pressure Visibility Wind Dir Wind Speed Gust Speed Precip Events Conditions
12:53 AM 30.9 °F 24.3 °F 26.1 °F 82% 30.12 in 10.0 mi North 6.9 mph - N/A   Mostly Cloudy
1:53 AM 30.0 °F - 25.0 °F 82% 30.12 in 10.0 mi Calm Calm - N/A   Partly Cloudy
2:53 AM 28.0 °F 22.8 °F 23.0 °F 81% 30.14 in 10.0 mi North 4.6 mph - N/A   Clear
3:53 AM 28.9 °F 22.8 °F 24.1 °F 82% 30.14 in 10.0 mi NW 5.8 mph - N/A   Clear
4:53 AM 26.1 °F - 21.9 °F 84% 30.17 in 10.0 mi Calm Calm - N/A   Clear
5:53 AM 30.0 °F 22.4 °F 24.1 °F 79% 30.20 in 10.0 mi NNE 8.1 mph 17.3 mph N/A   Clear
6:53 AM 28.0 °F 16.5 °F 24.1 °F 85% 30.25 in 10.0 mi NNE 15.0 mph 20.7 mph N/A   Unknown
7:00 AM 28.0 °F 15.7 °F 24.1 °F 85% 30.20 in 10.0 mi NNE 17.3 mph - N/A   Overcast
7:53 AM 26.1 °F - 21.9 °F 84% 30.32 in 9.0 mi North - - N/A   Unknown
8:28 AM 24.8 °F 11.1 °F 19.4 °F 80% 30.29 in 6.0 mi NE 18.4 mph - N/A   Overcast
8:50 AM 23.0 °F 9.2 °F 15.8 °F 74% 30.31 in 10.0 mi NE 17.3 mph 26.5 mph N/A   Overcast
8:53 AM 23.0 °F 9.2 °F 16.0 °F 74% 30.39 in 10.0 mi NNE 17.3 mph 24.2 mph N/A   Overcast
9:53 AM 21.0 °F 7.1 °F 12.9 °F 71% 30.43 in 10.0 mi NNE 16.1 mph - N/A   Overcast
10:53 AM 21.0 °F 6.6 °F 10.9 °F 65% 30.45 in 10.0 mi NNE 17.3 mph - N/A   Overcast
11:41 AM 21.9 °F 8.2 °F 6.1 °F 51% 30.39 in 10.0 mi NE 16.1 mph - N/A   Overcast
11:53 AM 21.0 °F 7.6 °F 1.9 °F 44% 30.48 in 10.0 mi NE 15.0 mph - N/A   Overcast
12:53 PM 21.0 °F 7.6 °F -2.0 °F 36% 30.46 in 10.0 mi NE 15.0 mph - N/A   Overcast
1:53 PM 19.9 °F 7.3 °F -6.0 °F 32% 30.44 in 10.0 mi ENE 12.7 mph - N/A   Overcast
2:53 PM 21.0 °F 8.6 °F -4.0 °F 33% 30.42 in 10.0 mi ENE 12.7 mph - N/A   Mostly Cloudy
3:53 PM 21.0 °F 10.6 °F -5.1 °F 32% 30.42 in 10.0 mi ENE 9.2 mph - N/A   Clear
4:53 PM 21.0 °F 9.9 °F -5.1 °F 32% 30.40 in 10.0 mi ENE 10.4 mph - N/A   Clear
5:53 PM 19.0 °F 6.8 °F -7.1 °F 31% 30.41 in 10.0 mi East 11.5 mph - N/A   Clear
6:53 PM 17.1 °F 3.6 °F -7.1 °F 34% 30.42 in 10.0 mi East 12.7 mph - N/A   Clear
7:53 PM 17.1 °F 4.3 °F -4.0 °F 39% 30.45 in 10.0 mi East 11.5 mph - N/A   Partly Cloudy
8:53 PM 16.0 °F 4.4 °F -2.9 °F 43% 30.45 in 10.0 mi SE 9.2 mph - N/A   Clear
9:53 PM 16.0 °F 2.9 °F -2.9 °F 43% 30.43 in 10.0 mi ESE 11.5 mph - N/A   Scattered Clouds
10:53 PM 16.0 °F 4.4 °F -2.9 °F 43% 30.43 in 10.0 mi SE 9.2 mph - N/A   Scattered Clouds
11:53 PM 16.0 °F 6.3 °F -2.0 °F 45% 30.43 in 10.0 mi SE 6.9 mph - N/A   Overcast